Regional Weather Roundup
Issued by NWS

Home | Current Version | Previous Version | Text Only | Print | Product List | Glossary Off
Versions: 1 2 3 4 5 6 7 8 9 10 11 12 13 14 15 16 17 18 19 20 21 22 23 24 25 26 27

000
ASUS45 KCYS 241410
RWRWY

WYOMING REGIONAL WEATHER ROUNDUP
NATIONAL WEATHER SERVICE CHEYENNE WY
800 AM MDT THU APR 24 2014

NOTE:  "FAIR" INDICATES FEW OR NO CLOUDS BELOW 12,000 FEET
WITH NO SIGNIFICANT WEATHER AND/OR OBSTRUCTIONS TO VISIBILITY.

WYZ001-241500-
YELLOWSTONE NATIONAL PARK

CITY           SKY/WX    TMP DP  RH WIND       PRES   REMARKS
LK YELLOWSTONE   N/A     28  19  69 CALM      30.00R
W YELLOWSTONE  NOT AVBL

$$
WYZ002>013-054>058-071-098>099-241500-
NORTHERN WYOMING

CITY           SKY/WX    TMP DP  RH WIND       PRES   REMARKS
JACKSON        CLOUDY    34  25  69 SW9       30.01R WCI  26
CODY           SUNNY     45  19  36 W17G28    29.90R
GREYBULL       SUNNY     38  21  50 N6        29.92R WCI  33
WORLAND        SUNNY     41  21  44 VRB3      29.91R
SHERIDAN         N/A     30  18  59 W12         N/A  WCI  21
BUFFALO        SUNNY     44  17  33 N3        29.89R
GILLETTE       SUNNY     44  21  40 SW18      29.87R
HULETT         FAIR      34  25  69 W3        29.89
NEWCASTLE      FAIR      37  27  65 SE10      29.91  WCI  30

$$
WYZ014>020-022>026-101>103-241500-
CENTRAL WYOMING

CITY           SKY/WX    TMP DP  RH WIND       PRES   REMARKS
BIG PINEY      CLOUDY    25  15  66 SE5       30.06R WCI  19
PINEDALE       CLOUDY    27  23  86 CALM      30.07R
DUBOIS         FAIR      32  19  59 N15G22    29.96R WCI  22
LANDER         MOSUNNY   32  21  64 CALM      29.97R
RIVERTON       MOSUNNY   36  16  44 SW6       29.97R WCI  31
CASPER         SUNNY     39  18  42 SW16      29.97R WCI  30
DOUGLAS        SUNNY     40  22  48 NW5       29.95S

$$
WYZ021-027>030-104>119-241500-
SOUTHERN WYOMING

CITY           SKY/WX    TMP DP  RH WIND       PRES   REMARKS
EVANSTON       MOSUNNY   32  17  54 SW10      30.08R WCI  24
FORT BRIDGER   FAIR      38  19  45 SW13      30.11R WCI  31
ROCK SPRINGS   SUNNY     33  14  45 W7        30.09R WCI  27
DIXON          FAIR      29  20  70 CALM      30.15R
RAWLINS        SUNNY     34  16  47 SW18      30.06R WCI  23
SARATOGA       FAIR      36  18  48 W18       30.09R WCI  25
LARAMIE        SUNNY     33  14  45 SW21      30.03R WCI  21
CHEYENNE       SUNNY     39  15  37 W23G30    29.99R WCI  28
TORRINGTON     SUNNY     42  23  46 W16G23    29.95S
PINE BLUFFS    FAIR      39  19  45 W18G24    29.99S WCI  30

$$



USA.gov is the U.S. government's official web portal to all federal, state and local government web resources and services.